San Antonio, TX

8:03 AM CST on January 16, 2017 (GMT -0600)
Stinson Municipal

Weather History for KSSF - January, 2014

Change the Weather History Date:

Sunday, January 26, 2014

  Actual Average Record
Temperature  
Mean Temperature 58 °F -  
Max Temperature 79 °F 61 °F 80 °F (2005)
Min Temperature 36 °F 42 °F 32 °F (2011)
Degree Days  
Heating Degree Days 8    
Growing Degree Days 8 (Base 50)    
Moisture  
Dew Point 39 °F    
Average Humidity 58    
Maximum Humidity 82    
Minimum Humidity 29    
Precipitation  
Precipitation 0.00 in - - ()
Sea Level Pressure  
Sea Level Pressure 29.86 in    
Wind  
Wind Speed 3 mph (SSW)    
Max Wind Speed 14 mph    
Max Gust Speed 20 mph    
Visibility 9 miles    
Events      
Averages and records for this station are not official NWS values.
T = Trace of Precipitation, MM = Missing Value Source: NWS Daily Summary

Daily Weather History Graph

Daily Weather History Graph

Search for Another Location

Airport or City:

Trip Planner

Search our weather history database for the weather conditions in past years. The results will help you decide how hot, cold, wet, or windy it might be!

Date:

Astronomy

Jan. 26, 2014 Rise Set
Actual Time 7:26 AM CST 6:07 PM CST
Civil Twilight 7:00 AM CST 6:32 PM CST
Nautical Twilight 6:32 AM CST 7:01 PM CST
Astronomical Twilight 6:03 AM CST 7:29 PM CST
Moon 3:03 AM CST (1/26) 2:00 PM CST (1/26)
Length of Visible Light 11h 31m
Length of Day
10h 41m
Waning Crescent, 23% of the Moon is Illuminated
Jan 26
Waning Crescent
Jan 30
New
Feb 6
First Quarter
Feb 14
Full
Feb 22
Last Quarter

Hourly Weather History & Observations

Time (CST) Temp. Dew Point Humidity Pressure Visibility Wind Dir Wind Speed Gust Speed Precip Events Conditions
12:53 AM 41.0 °F 33.1 °F 73% 30.02 in 9.0 mi Calm Calm - N/A   Clear
1:53 AM 39.9 °F 33.1 °F 77% 30.00 in 7.0 mi Calm Calm - N/A   Clear
2:53 AM 39.9 °F 33.1 °F 77% 29.98 in 7.0 mi Calm Calm - N/A   Clear
3:53 AM 37.0 °F 32.0 °F 82% 29.98 in 6.0 mi Calm Calm - N/A   Haze
4:53 AM 37.9 °F 32.0 °F 79% 29.96 in 7.0 mi Calm Calm - N/A   Clear
5:53 AM 37.9 °F 32.0 °F 79% 29.94 in 8.0 mi Calm Calm - N/A   Clear
6:53 AM 36.0 °F 30.9 °F 82% 29.95 in 7.0 mi Calm Calm - N/A   Clear
7:53 AM 37.0 °F 30.9 °F 79% 29.95 in 9.0 mi Calm Calm - N/A   Clear
8:53 AM 48.0 °F 36.0 °F 63% 29.95 in 10.0 mi Calm Calm - N/A   Clear
9:53 AM 55.0 °F 37.9 °F 53% 29.94 in 10.0 mi South 4.6 mph - N/A   Clear
10:53 AM 62.1 °F 41.0 °F 46% 29.93 in 10.0 mi WSW 8.1 mph - N/A   Clear
11:53 AM 69.1 °F 41.0 °F 36% 29.89 in 10.0 mi SSW 11.5 mph - N/A   Clear
12:53 PM 71.1 °F 43.0 °F 36% 29.83 in 10.0 mi SW 13.8 mph - N/A   Clear
1:53 PM 75.9 °F 43.0 °F 31% 29.79 in 10.0 mi SSW 9.2 mph 19.6 mph N/A   Clear
2:53 PM 78.1 °F 44.1 °F 30% 29.74 in 10.0 mi SSW 13.8 mph - N/A   Clear
3:53 PM 79.0 °F 44.1 °F 29% 29.72 in 10.0 mi South 12.7 mph - N/A   Clear
4:53 PM 79.0 °F 45.0 °F 30% 29.70 in 10.0 mi South 11.5 mph - N/A   Clear
5:53 PM 75.0 °F 45.0 °F 34% 29.71 in 10.0 mi South 5.8 mph - N/A   Clear
6:53 PM 66.0 °F 45.0 °F 47% 29.73 in 10.0 mi SSE 3.5 mph - N/A   Clear
7:53 PM 63.0 °F 45.0 °F 52% 29.74 in 10.0 mi Calm Calm - N/A   Clear
8:53 PM 57.0 °F 45.0 °F 64% 29.75 in 10.0 mi Calm Calm - N/A   Clear
9:53 PM 55.9 °F 45.0 °F 67% 29.77 in 10.0 mi Calm Calm - N/A   Clear
10:53 PM 52.0 °F 43.0 °F 71% 29.79 in 10.0 mi Calm Calm - N/A   Clear
11:53 PM 50.0 °F 43.0 °F 77% 29.79 in 10.0 mi Calm Calm - N/A   Clear